SCP
0 0 0 0 0 0 0 0 0 0 0 0 0 0 0 0 0 0 0 0 0 0 0 0 0 0 0 0 0 0 0 0 0 0 0 0 0 0 0 0 0 0 0
0 0 0 0 0 0 0 0 0 0 0 0 0 0 0 0 0 0 0 0 0 0 0 0 0 0 0 0 0 0 0 0 0 0 0 0 0 0 0 0 0 0 0
0 0 0 0 0 0 0 0 0 0 0 0 0 0 0 0 0 0 0 0 0 0 0 0 0 0 0 0 0 0 0 0 0 0 0 0 0 0 0 0 0 0 0
0 0 0 0 0 0 0 0 0 0 0 0 0 0 0 0 0 0 0 0 0 0 0 0 0 0 0 0 0 0 0 0 0 0 0 0 0 0 0 0 0 0 0
0 0 0 0 0 0 0 0 0 0 0 0 0 0 0 0 0 0 0 0 0 0 0 0 0 0 0 0 0 0 0 0 0 0 0 0 0 0 0 0 0 0 0
0 0 0 0 0 0 0 0 0 0 0 0 0 0 0 0 0 0 0 0 0 0 0 0 0 0 0 0 0 0 0 0 0 0 0 0 0 0 0 0 0 0 0
0 0 0 0 0 0 0 0 0 0 0 0 0 0 0 0 0 0 0 0 0 0 0 0 0 0 0 0 0 0 0 0 0 0 0 0 0 0 0 0 0 0 0
1 1 1 1 0 0 0 0 0 0 0 0 0 0 0 0 0 0 0 0 0 0 0 0 0 0 0 0 0 0 0 0 0 0 0 0 0 0 0 0 0 0 0
1 1 1 1 1 1 1 0 0 0 0 0 0 0 0 0 0 0 0 0 0 0 0 0 0 0 0 0 0 0 0 0 0 0 0 0 0 0 0 0 0 0 0
1 1 1 1 1 1 1 1 1 1 1 1 1 1 1 0 0 0 0 0 0 0 0 0 0 0 0 0 0 0 0 0 0 0 0 0 0 0 0 0 0 0 0
2 2 1 1 1 1 1 1 1 1 1 1 1 1 1 1 0 0 0 0 0 0 0 0 0 0 0 0 0 0 0 0 0 0 0 0 0 0 0 0 0 0 0
1 1 1 1 1 1 1 1 1 1 1 1 1 1 1 1 0 0 0 0 0 0 0 0 0 0 0 0 0 0 0 0 0 0 0 0 0 0 0 0 0 0 0
1 1 1 1 1 1 1 1 1 1 1 1 1 1 1 0 0 0 0 0 0 0 0 0 0 0 0 0 0 0 0 0 0 0 0 0 0 0 0 0 0 0 0
0 0 0 0 0 0 0 0 0 0 0 0 0 0 0 0 0 0 0 0 0 0 0 0 0 0 0 0 0 0 0 0 0 0 0 0 0 0 0 0 0 0 0
0 0 0 0 0 0 0 0 0 0 0 0 0 0 0 0 0 0 0 0 0 0 0 0 0 0 0 0 0 0 0 0 0 0 0 0 0 0 0 0 0 0 0
0 0 0 0 0 0 0 0 0 0 0 0 0 0 0 0 0 0 0 0 0 0 0 0 0 0 0 0 0 0 0 0 0 0 0 0 0 0 0 0 0 0 0
0 0 0 0 0 0 0 0 0 0 0 0 0 0 0 0 0 0 0 0 0 0 0 0 0 0 0 0 0 0 0 0 0 0 0 0 0 0 0 0 0 0 0
0 0 0 0 0 0 0 0 0 0 0 0 0 0 0 0 0 0 0 0 0 0 0 0 0 0 0 0 0 0 0 0 0 0 0 0 0 0 0 0 0 0 0
0 0 0 0 0 0 0 0 0 0 0 0 0 0 0 0 0 0 0 0 0 0 0 0 0 0 0 0 0 0 0 0 0 0 0 0 0 0 0 0 0 0 0
0 0 0 0 0 0 0 0 0 0 0 0 0 0 0 0 0 0 0 0 0 0 0 0 0 0 0 0 0 0 0 0 0 0 0 0 0 0 0 0 0 0 0
0 0 0 0 0 0 0 0 0 0 0 0 0 0 0 0 0 0 0 0 0 0 0 0 0 0 0 0 0 0 0 0 0 0 0 0 0 0 0 0 0 0 0
0 0 0 0 0 0 0 0 0 0 0 0 0 0 0 0 0 0 0 0 0 0 0 0 0 0 0 0 0 0 0 0 0 0 0 0 0 0 0 0 0 0 0
0 0 0 0 0 0 0 0 0 0 0 0 0 0 0 0 0 0 0 0 0 0 0 0 0 0 0 0 0 0 0 0 0 0 0 0 0 0 0 0 0 0 0
0 0 0 0 0 0 0 0 0 0 0 0 0 0 0 0 0 0 0 0 0 0 0 0 0 0 0 0 0 0 0 0 0 0 0 0 0 0 0 0 0 0 0
0 0 0 0 0 0 0 0 0 0 0 0 0 0 0 0 0 0 0 0 0 0 0 0 0 0 0 0 0 0 0 0 0 0 0 0 0 0 0 0 0 0 0
0 0 0 0 0 0 0 0 0 0 0 0 0 0 0 0 0 0 0 0 0 0 0 0 0 0 0 0 0 0 0 0 0 0 0 0 0 0 0 0 0 0 0
Wind_Speed
5 4 3 3 3 3 3 3 3 4 4 4 4 5 5 4 4 4 3 9 11 11 11 10 10 10 9 9 9 8 7 7 6 5 4 4 3 2 2 3 3 4 4
5 5 4 4 4 4 4 4 4 4 3 3 4 4 4 4 4 4 4 5 10 12 12 12 11 11 10 10 10 9 9 9 9 8 7 6 5 5 4 3 3 3 3
6 5 4 4 4 4 4 3 3 2 2 2 3 4 3 4 4 4 4 4 4 9 12 13 12 11 10 10 9 9 9 10 10 11 10 9 8 7 6 5 5 4 4
6 5 4 3 3 3 3 2 2 2 2 2 2 3 3 3 5 5 4 4 4 4 7 11 11 10 9 8 8 8 8 9 10 11 11 12 11 10 9 8 7 6 6
6 4 4 3 3 2 2 2 2 2 2 3 3 3 3 4 5 5 5 5 5 4 4 5 7 6 5 5 7 7 7 7 8 11 12 12 12 12 12 11 10 9 8
6 5 3 3 3 2 2 2 2 2 2 2 3 4 4 5 4 5 6 4 3 4 3 3 2 2 2 2 4 6 7 7 6 8 11 12 13 13 13 13 13 12 11
5 4 3 3 2 2 3 3 2 2 2 1 1 3 4 4 4 4 3 3 2 2 2 2 2 2 1 1 2 3 5 6 6 5 6 8 11 13 14 15 15 15 14
5 4 4 3 2 2 2 2 2 1 2 1 1 1 3 4 3 3 2 1 1 1 1 2 3 2 2 1 2 3 3 5 6 6 5 6 7 9 12 14 15 16 16
5 4 4 3 2 2 2 2 2 2 2 1 2 2 2 3 3 3 3 2 2 2 1 2 2 2 3 2 1 3 4 5 6 6 6 6 6 7 9 11 13 15 16
4 4 4 3 2 1 1 1 1 1 2 2 1 2 3 3 3 3 2 2 3 3 2 2 2 3 3 2 3 4 5 5 5 6 6 6 6 6 6 8 10 13 14
3 4 3 3 3 2 1 1 1 1 2 2 2 2 2 2 4 4 4 2 1 2 2 2 3 3 3 3 2 5 6 6 7 7 7 7 8 7 6 6 7 8 12
2 3 4 3 3 2 2 1 1 1 1 2 2 2 2 2 2 3 4 3 2 0 2 3 3 3 3 3 4 7 7 8 8 8 8 9 9 9 8 8 7 7 8
2 3 3 3 2 2 1 1 0 1 1 2 2 2 2 2 2 2 3 3 2 1 1 2 3 2 2 2 3 7 7 8 8 9 9 9 9 9 8 7 7 6 5
3 3 3 3 3 2 1 1 0 1 1 2 2 2 1 1 1 2 2 2 2 1 2 2 2 2 2 2 4 6 4 8 8 9 9 10 10 10 9 8 6 4 3
4 4 4 3 2 2 1 1 0 1 1 1 1 1 1 1 1 1 1 2 2 3 2 3 2 1 1 2 4 3 3 7 8 9 10 10 11 11 11 9 8 7 4
4 4 3 3 2 2 1 1 0 1 1 1 1 0 0 0 0 1 1 1 1 2 2 2 2 1 2 2 4 3 3 7 8 8 9 10 11 12 12 11 10 9 8
4 4 3 3 2 1 1 1 0 1 1 0 0 1 1 1 1 1 1 1 1 0 2 2 2 1 2 2 2 2 3 3 4 8 8 9 10 10 11 11 11 10 10
4 4 3 3 2 2 1 1 0 1 1 1 1 2 1 1 1 1 1 1 0 1 1 3 2 1 1 1 2 2 3 3 3 7 8 8 9 9 9 9 10 10 10
4 4 3 3 2 2 2 1 1 1 2 2 2 2 2 2 1 1 1 1 0 1 1 3 2 1 1 1 2 2 2 3 3 5 7 7 8 8 8 9 9 9 9
4 3 3 3 2 2 2 2 2 2 2 2 2 2 2 2 2 1 1 1 1 1 2 3 2 2 2 2 2 1 1 2 2 4 5 5 7 8 8 7 8 8 7
4 4 3 2 2 2 2 2 2 2 3 3 3 2 2 3 3 2 1 1 1 1 2 2 2 2 1 1 1 1 1 1 1 2 3 3 3 3 4 6 6 5 5
3 3 3 3 3 2 3 5 3 2 3 3 3 2 2 3 4 5 5 4 3 2 2 2 2 2 2 2 2 1 1 1 1 2 2 2 2 2 2 2 4 4 4
4 4 3 3 3 3 5 5 5 3 3 3 3 2 2 2 4 3 5 7 6 5 3 3 3 3 3 3 3 2 1 1 1 1 1 1 2 2 2 3 5 3 3
4 3 4 4 3 4 6 5 6 3 2 2 3 3 3 2 2 3 3 3 3 3 3 3 3 3 3 3 3 3 3 1 0 1 1 0 2 2 2 3 5 3 3
4 3 3 4 4 4 7 7 6 3 2 2 2 3 4 3 5 6 4 3 2 1 3 5 5 4 5 5 5 3 2 2 0 1 1 0 1 2 2 2 4 6 5
4 4 4 4 5 4 7 8 8 3 3 2 2 2 5 6 6 6 4 3 3 2 1 1 2 3 2 2 3 3 3 3 1 1 1 1 1 2 2 2 2 3 4
Wind_Direction
180 185 193 196 204 205 211 222 233 246 254 255 248 240 247 248 249 244 248 242 237 237 239 240 240 240 239 237 236 232 224 217 212 205 198 187 171 148 124 107 99 93 87
180 183 192 198 208 210 214 216 223 231 242 243 249 245 248 254 254 253 246 249 247 245 246 247 248 248 248 248 245 239 229 224 220 216 210 205 198 191 179 159 144 129 115
177 176 182 192 205 205 205 209 223 226 241 246 257 262 262 264 264 261 255 243 246 246 246 250 251 252 254 257 259 253 239 227 223 220 216 213 208 204 198 189 178 166 155
176 173 178 193 199 193 191 199 210 223 246 256 266 274 273 273 268 262 256 248 241 242 244 247 250 252 256 263 271 271 261 245 230 221 218 216 213 210 206 201 195 189 183
177 172 182 194 190 184 196 206 206 208 239 262 268 272 271 268 267 267 262 254 244 238 236 242 239 241 249 267 282 288 289 276 252 232 223 219 217 214 211 208 204 200 196
179 175 181 191 183 182 204 210 220 224 230 249 271 276 271 267 267 266 266 263 252 241 223 206 200 208 219 254 291 306 311 305 287 256 238 228 224 219 216 212 210 206 203
173 171 176 183 180 190 211 216 216 236 249 238 276 297 292 276 274 274 273 266 260 240 185 168 158 151 136 90 347 330 329 328 318 300 273 247 236 230 224 219 215 211 207
172 173 173 178 181 189 206 213 205 221 249 200 201 287 313 323 317 313 323 314 307 72 107 124 129 131 122 102 62 43 1 342 335 326 300 282 261 246 236 229 221 217 212
161 156 159 163 168 177 194 206 199 201 237 252 201 208 238 266 305 315 352 15 31 49 56 77 96 105 106 98 78 47 29 2 342 334 330 310 287 270 254 241 230 222 215
137 138 137 139 136 138 165 195 174 187 202 239 253 230 224 217 247 297 322 7 28 29 22 43 64 70 78 77 68 55 40 22 3 348 338 327 312 292 276 263 248 231 219
125 125 126 124 123 124 137 147 172 196 209 222 226 238 252 243 227 235 269 290 357 17 21 29 57 61 56 57 56 54 47 35 20 7 358 352 345 333 318 304 282 251 230
120 125 125 124 124 132 143 167 200 223 233 239 233 222 225 235 230 225 245 245 239 53 41 34 47 56 54 52 57 56 49 40 25 14 6 1 354 346 330 314 301 276 246
152 153 133 128 126 129 129 127 152 256 252 249 242 235 231 235 237 235 245 247 226 181 125 53 31 45 55 48 52 53 47 43 32 21 14 11 6 357 344 329 317 295 266
146 140 128 122 117 110 98 78 87 268 260 254 254 247 245 245 243 238 242 236 240 213 170 146 44 38 45 48 63 55 40 43 40 33 28 25 22 15 8 2 354 338 312
128 127 122 114 102 90 72 57 322 284 274 260 254 247 240 260 272 271 260 239 223 226 215 160 137 46 52 59 65 52 38 48 52 47 39 34 29 26 23 22 24 21 16
117 123 121 115 103 86 67 60 296 282 250 251 241 206 127 20 24 354 299 282 252 224 208 132 130 120 66 80 70 54 43 51 46 47 42 36 33 31 28 30 34 33 35
118 121 121 117 109 90 61 66 280 269 207 211 158 129 98 66 51 9 355 353 332 241 199 126 106 101 85 78 57 50 48 39 29 42 43 37 35 34 34 37 39 41 46
120 121 117 114 113 103 87 96 104 94 152 155 127 121 111 96 70 25 22 29 348 313 171 155 127 119 108 102 78 63 45 41 25 32 40 37 37 36 36 38 40 43 47
125 121 123 126 125 122 111 104 113 99 101 111 115 120 116 113 90 52 44 44 354 359 96 132 131 121 104 84 76 55 47 24 21 24 31 30 33 36 39 42 44 47 50
135 139 139 142 145 142 133 125 121 117 108 97 94 103 110 124 130 119 77 45 64 79 89 109 117 110 101 78 86 79 40 20 12 6 14 19 24 30 33 41 46 46 45
151 152 151 151 149 151 158 147 139 146 134 116 98 90 98 114 128 127 118 97 104 108 108 109 117 111 115 110 123 101 87 5 2 6 354 1 6 12 9 14 27 36 42
158 159 167 169 173 184 184 181 169 157 153 147 136 111 92 79 85 86 84 85 107 134 151 145 147 152 158 147 127 114 109 80 302 343 11 345 8 4 344 336 354 24 38
172 175 179 177 179 191 195 192 183 155 157 162 160 158 145 113 91 75 71 59 53 65 119 158 157 169 166 169 146 134 149 170 226 298 10 331 350 337 323 333 342 11 31
178 182 184 182 181 200 200 190 169 141 147 163 171 174 161 150 155 139 114 80 53 41 69 95 135 154 159 156 160 162 162 146 321 349 46 307 332 321 325 331 341 20 31
181 184 182 183 188 204 201 189 166 148 163 180 188 185 176 185 198 165 143 133 94 33 84 116 128 141 148 155 150 119 114 96 113 322 16 78 326 323 320 322 343 9 13
185 183 191 193 196 207 211 204 184 165 180 194 208 212 204 201 207 181 163 166 180 205 150 93 77 71 59 71 132 145 148 140 162 247 315 70 13 8 332 313 325 346 1